DECAYED
Showing default

FRAM-2, 63427 (Decayed)

Orbit data source: Space-Track

FRAM-2, 63427 was a payload satellite owned by SpaceX (US) in LEO that was launched on Tue, 01 Apr 2025 UTC via an FALCON 9 launch vehicle from the Air Force Eastern Test Range (AFETR). Payload-class satellites include a variety of spacecraft equipped with specific instruments for various scientific and technological missions. These include communications satellites like Starlink; space stations such as the ISS; scientific satellites like the Hubble; Earth observation satellites from companies like Planet Labs, Umbra, and HawkEye 360; GPS; miniature CubeSats for education and research; and military/defense satellites.

Loading next visibility...
Identifier
63427, 2025-066A
Orbit
Decayed
Country
Flag of USUS
Related business
Manufacturer
SpaceX
Mission
Decayed Commercial Spaceship
Bus & Motor
DRAGON CM, Unknown motor
Mass
~13,055 kg wet, ~9,500 kg dry
Launch date (UTC)
2025-04-01 (1 year ago)
Launch vehicle
FALCON 9
Launch site
Air Force Eastern Test Range (AFETR)
Object type
Payload
Rocket body
Debris
Shape & HBR
Trunc Cone + Cyl + 4 Fin, 14.5 m
Radar Cross Section
21.677 m², Large (>1 m²)

Expand to show TLE details & history
Last TLE update: 1 year ago

TLE from 1 year ago
0 FRAM-2
1 63427U 25066A   25094.61586442  .00010823  00000-0  12937-3 0  9996
2 63427  89.6759 318.3003 0074001  97.4684 319.2422 15.57450931   548
Epoch: 2025-04-04T14:46Z
TLE epoch observation values (Epoch: 2025-04-04T14:46:50.685Z)
Latitude
56.25553°
Longitude
-96.10025°
Altitude
366.775 km
Speed
7.716 km/s
True Right ascension
21h 15m 07s
True Declination
56° 05' 14"
Sunlit
Object was in daylight at epoch
Visualization orbit readout
Latitude
Unknown
Longitude
Unknown
Altitude
Unknown
Speed
Unknown
Apparent Right ascension
Unknown
Apparent Declination
Unknown
Sunlit
N/A
Visualization observer readout
Local Sidereal Time
07:24:21
Azimuth
Unknown
Elevation
Unknown
Doppler factor
Unknown
Orbital elements
Apogee altitude
441.89 km
Perigee altitude
341.693 km
Semi-major axis
6,769.929 km
Eccentricity
0.0074
Inclination
89.6759°
RAAN
318.3003°
Arg. of periapsis
97.4684°
True anomaly
318.68468°
Mean anomaly
319.2422°
Eccentric anomaly
318.96383°
Mean motion
3.89643 °/min
Orbital period
92.39 mins
BSTAR
0.00012937
Loading maneuver chart data...
Computing Atmospheric mass density...
Loading historical data...
Loading historical data...
Loading historical data...
Loading historical data...
Loading historical data...
Loading historical data...
Loading historical data...
Other satellites on launch #66 in the year 2025 (2025-04-01 UTC)

Documentation

Showing up to 5 results
|